This is the latest recevied weather packets stored in our database for station/object SR5NLK-1. If no packets are shown the sender has not sent any weather packets the latest 10 day(s).
| Time | Temp. | Humidity | Pressure | Rain* | Wind** | Luminosity | Snow |
|---|---|---|---|---|---|---|---|
| 1787469610 | 22.22° C | 52% | 1020.8 hPa | 0 mm | - | - | - |
| 1787469369 | 23.89° C | 50% | 1036.5 hPa | 0 mm | - | - | - |
| 1787469310 | 23.89° C | 50% | 1075.2 hPa | 0 mm | - | - | - |
| 1787469010 | 24.44° C | 54% | 1065.8 hPa | 0 mm | - | - | - |
| 1787468742 | 24.44° C | 54% | 1061.5 hPa | 0 mm | - | - | - |
| 1787468710 | 24.44° C | 54% | 1061.5 hPa | 0 mm | - | - | - |
| 1787468410 | 23.89° C | 57% | 1075.3 hPa | 0 mm | - | - | - |
| 1787468147 | 22.22° C | 59% | 1072.1 hPa | 0 mm | - | - | - |
| 1787468110 | 22.22° C | 59% | 1072.1 hPa | 0 mm | - | - | - |
| 1787467843 | 22.22° C | 57% | 1062.7 hPa | 0 mm | - | - | - |
| 1787467810 | 22.22° C | 57% | 1062.7 hPa | 0 mm | - | - | - |
| 1787467541 | 22.22° C | 58% | 1050 hPa | 0 mm | - | - | - |
| 1787467510 | 22.22° C | 58% | 1050 hPa | 0 mm | - | - | - |
| 1787467389 | 22.22° C | 57% | 1084.6 hPa | 0 mm | - | - | - |
| 1787467210 | 22.22° C | 59% | 1056.4 hPa | 0 mm | - | - | - |
| 1787466944 | 21.11° C | 60% | 1072.1 hPa | 0 mm | - | - | - |
| 1787466910 | 21.11° C | 60% | 1072.1 hPa | 0 mm | - | - | - |
| 1787466310 | 21.67° C | 61% | 1053.2 hPa | 0 mm | - | - | - |
| 1787466010 | 21.11° C | 62% | 1059.5 hPa | 0 mm | - | - | - |
| 1787465710 | 20.56° C | 63% | 1050.1 hPa | 0 mm | - | - | - |
| 1787465409 | 20.56° C | 61% | 1062.7 hPa | 0 mm | - | - | - |
| 1787465110 | 21.11° C | 59% | 1062.7 hPa | 0 mm | - | - | - |
| 1787464846 | 21.67° C | 61% | 1078.4 hPa | 0 mm | - | - | - |
| 1787464810 | 21.67° C | 61% | 1078.4 hPa | 0 mm | - | - | - |
| 1787464510 | 21.11° C | 60% | 1072.1 hPa | 0 mm | - | - | - |
* Rain latest hour (hover to see other rain measurements)
** Current wind speed in m/s (hover to see current wind gust speed)